Flag Weather past 2 weeks in Carson City, Nevada, U.S.A.

Now
70 °F

Scattered clouds.


Feels Like: 74 °F
Forecast: 43 / 63 °F
Wind: 21 mph from Southwest

Location: Reno Tahoe International Airport

Current Time: Oct 31, 2014 at 2:42:06 PM

Latest Report: Oct 31, 2014 at 1:55 PM


Visibility: 10 mi

Pressure: 29.62 "Hg

Humidity: 21%

Dew point: 28 °F

Location of Carson CityLocation

Historic Weather in Carson City — Graph

°F

Carson City temperature yesterday

Maximum temperature yesterday: 66 °F (at 4:55 PM)
Minimum temperature yesterday: 38 °F (at 6:55 AM)
Average temperature yesterday: 51 °F

Past Weeks' High & Low Weather Summary

 TemperatureHumidityPressure
High80 °F (Oct 24, 1:55 PM)77% (Oct 29, 5:55 AM)30.25 "Hg (Oct 29, 5:55 AM)
Low33 °F (Oct 27, 5:55 AM)10% (Oct 24, 1:55 PM)29.65 "Hg (Oct 31, 12:55 PM)
Average55 °F42%29.98 "Hg
* Reported Oct 16 12:55 PM — Oct 31 12:55 PM, Carson City, Weather by CustomWeather, © 2014

Note: Actual official high and low records may vary slightly from our data, if they occured in-between our weather recording intervals... More about our weather records

Advertising

Carson City weather history for previous 24 hours

 ConditionsComfort  
Time TempWeatherWind HumidityBarometerVisibility
12:55 PM
Oct 31
69 °FScattered clouds.15 mph21%29.65 "Hg10 mi
11:55 AM68 °FScattered clouds.16 mph21%29.69 "Hg10 mi
10:55 AM63 °FPassing clouds.5 mph28%29.75 "Hg10 mi
9:55 AM59 °FScattered clouds.6 mph38%29.77 "Hg10 mi
8:55 AM54 °FPassing clouds.6 mph43%29.80 "Hg10 mi
7:55 AM50 °FPassing clouds.9 mph50%29.79 "Hg10 mi
6:55 AM54 °FPassing clouds.8 mph43%29.79 "Hg10 mi
5:55 AM54 °FPassing clouds.No wind40%29.77 "Hg10 mi
4:55 AM59 °FClear.No wind33%29.75 "Hg10 mi
3:55 AM56 °FPassing clouds.10 mph36%29.77 "Hg10 mi
2:55 AM58 °FPassing clouds.7 mph32%29.80 "Hg10 mi
1:55 AM54 °FPassing clouds.No wind40%29.82 "Hg10 mi
12:55 AM59 °FPartly cloudy.3 mph32%29.84 "Hg10 mi
11:55 PM
Oct 30
55 °FPartly cloudy.7 mph40%29.86 "Hg10 mi
10:55 PM53 °FPassing clouds.No wind51%29.88 "Hg10 mi
9:55 PM56 °FPartly cloudy.No wind46%29.90 "Hg10 mi
8:55 PM55 °FPartly cloudy.5 mph47%29.91 "Hg10 mi
7:55 PM58 °FMostly cloudy.No wind44%29.91 "Hg10 mi
6:55 PM61 °FBroken clouds.5 mph36%29.91 "Hg10 mi
5:55 PM64 °FBroken clouds.No wind29%29.90 "Hg10 mi
4:55 PM66 °FBroken clouds.No wind26%29.90 "Hg10 mi
3:55 PM65 °FBroken clouds.3 mph27%29.91 "Hg10 mi
2:55 PM64 °FMostly cloudy.3 mph29%29.94 "Hg10 mi
Weather by CustomWeather, © 2014

See weather overviewHow to use our weather pages